FLOCK 4V-16 (46527 NORAD) Tracking and Keplerian Element Data

This shows tracking and keplerian element data for the satellite.

Feedback or suggestion? Click here.




ElementValue
Catalog46527
NameFLOCK 4V-16
Epoch Orbit475
Epoch Day304.74458546
Epoch Year2020
RAAN16.7909
Inclination97.4661
Eccentricity0.0009724
Argument of Perigee35.7059
Mean Anonmoly324.4821
Mean Motion15.14567413
Decay Rate7.38E-06
L11 46527U 20061BD 20304.74458546 .00000738 00000-0 43545-4 0 9998
L22 46527 97.4661 16.7909 0009724 35.7059 324.4821 15.14567413 4759

Live tracking and technical data element details for FLOCK 4V-16 (NORAD 46527). FLOCK 4V-16 can be tracked NOW for your location showing map with azimuth and elevation plus other details from your city location.

Track the satellite on the map from your city or location and see movement details for azimuth, elevation, latitude, longitude, range, height, and movement on the map or in text.







IsCatalogInMostPopularTable: catalog: 46527, numindb: 6
Update: records affected: 1



GetName: 46527 FLOCK 4V-16

Hit Count: updated at: Sat, 31 Oct 2020 11:08:26 GMT